Location: *
(31.2652°S, 134.4610°W)
Time: 00:57:50
(UTC+00:00)

Daily predictions for brighter satellites

Satellite Brightness Start Highest point End
(mag) Time Altitude Azimuth Time Altitude Azimuth Time Altitude Azimuth
CZ-4B R/B 3.4 03:12:32 10° SSE 03:18:00 84° WSW 03:23:30 10° NNW
Tsikada Rocket 4.2 03:14:42 10° N 03:21:01 84° W 03:27:29 10° S
AQUARIUS 4.2 03:17:12 10° SSE 03:21:46 89° WSW 03:26:17 10° NNW
Cosmos 2034 Rocket 4.3 03:17:58 10° S 03:24:23 78° W 03:30:45 10° N
Cosmos 1470 4.4 03:22:04 10° SE 03:24:36 16° ESE 03:27:05 10° ENE
CORIOLIS 4.2 03:19:29 10° SSE 03:25:01 82° ENE 03:30:27 10° N
Cosmos 2297 4.2 03:19:58 10° S 03:25:23 40° ESE 03:30:44 10° NE
Cosmos 1766 3.3 03:22:00 10° S 03:25:53 61° E 03:29:45 10° NNE
CZ-2C R/B 3.1 03:21:03 10° NE 03:26:14 41° ESE 03:31:21 10° S
Cosmos 2278 Rocket 3.6 03:22:43 10° SW 03:28:07 44° WNW 03:33:26 10° N
Cosmos 1437 2.5 03:27:39 10° N 03:30:35 58° E 03:33:36 10° SSE
Okean-O 3.7 03:27:26 10° SE 03:30:59 23° E 03:34:30 10° NNE
Cosmos 1707 3.8 03:28:15 10° NE 03:31:23 24° E 03:34:34 10° SE
IRS-1C Rocket 4.5 03:26:33 10° SSE 03:31:33 41° E 03:36:29 10° N
Cosmos 1842 3.2 03:28:59 10° N 03:32:55 85° E 03:36:57 10° S
OAO 1 Rocket 4.5 03:32:06 10° WNW 03:37:28 89° SSW 03:42:43 11° ESE
IUS-17 SRM-1 2.4 03:37:32 10° WNW 03:39:40 43° N 03:41:27 16° ENE
MOS 1 Rocket 3.8 03:36:00 10° N 03:40:28 64° W 03:45:17 10° SSW
USA 305 4.1 03:36:44 10° SSW 03:40:34 29° SE 03:43:29 15° E
Hubble Space Telescope 1.1 03:36:43 10° W 03:40:49 56° N 03:44:08 15° ENE
CZ-2D R/B 3.9 03:39:07 10° SSE 03:42:44 35° E 03:46:18 10° NNE
Cosmos 1900 4.4 03:38:41 10° N 03:43:36 57° ENE 03:48:29 10° SE
COSMOS 2455 4.4 03:39:22 10° SW 03:44:52 37° WNW 03:50:19 10° N
USA 306 3.9 03:41:17 10° SSW 03:45:13 31° SE 03:47:53 17° E
SL-24 R/B 4.3 03:40:46 10° SSE 03:45:18 52° E 03:49:31 10° N
Meteor 1-22 Rocket 4.2 03:42:26 10° S 03:47:57 86° E 03:53:36 10° N
CZ-2C R/B 4.0 03:45:27 10° SE 03:49:15 22° E 03:53:07 10° NNE
Cosmos 1634 Rocket 3.9 03:43:40 10° S 03:49:56 72° E 03:56:05 10° NNE
Atlas Centaur 2 2.7 03:45:40 10° WNW 03:53:00 61° NNE 03:57:25 19° E
Cosmos 1733 3.9 03:49:44 10° SSW 03:53:37 59° W 03:57:26 10° N
Okean O Rocket 3.9 03:49:46 10° SSW 03:53:39 29° WSW 03:57:32 10° NW
Helios 1A Rocket 2.9 03:51:35 10° SSE 03:55:38 60° E 03:59:40 10° N
Cosmos 2112 Rocket 4.2 03:51:42 10° NNW 03:57:01 79° WSW 04:02:26 10° SSE
CZ-4 R/B 4.4 03:52:53 10° SSE 03:57:02 61° E 04:01:06 10° N
Cosmos 1953 4.3 03:54:52 10° SE 03:56:12 14° ESE 03:56:12 14° ESE
Cosmos 1680 Rocket 4.1 03:52:51 10° NNW 03:58:07 64° WSW 04:03:28 10° S
Meteor 1-21 4.4 03:52:42 10° N 03:58:22 83° W 04:04:12 10° S
Lacrosse 5 3.4 03:57:43 10° S 04:01:30 20° SE 04:03:15 17° ESE
Cosmos 1943 Rocket 2.6 03:56:18 10° S 04:01:42 41° ESE 04:05:15 20° NE
Cosmos 1455 Rocket 3.3 03:58:04 10° S 04:02:28 49° E 04:06:48 10° NNE
Aurora 2 Rocket 4.4 03:54:31 10° WNW 04:03:54 53° N 04:08:36 22° ENE
USA 215 4.3 04:02:59 20° ENE 04:04:02 21° ENE 04:08:42 10° NNE
SeaSat 1 2.4 04:00:56 10° SSE 04:05:55 79° ENE 04:10:51 10° NNW
OAO 3 Rocket 3.4 04:02:08 10° WSW 04:06:47 58° S 04:09:15 26° ESE
CZ-4 R/B 1.4 04:04:25 10° SSE 04:08:36 60° E 04:12:47 10° N
ATLAS 5 CENTAUR R/B 3.0 04:06:45 10° S 04:10:53 24° SE 04:11:43 23° ESE
Cosmos 2056 Rocket 4.4 04:07:07 10° S 04:11:58 31° ESE 04:13:21 28° E
H-2A R/B 2.7 04:09:21 10° SE 04:13:11 28° E 04:13:11 28° E
CZ-2C R/B 4.0 04:11:36 22° NE 04:14:26 49° ESE 04:19:06 10° S
Cosmos 1340 Rocket 4.4 04:10:55 10° SSW 04:14:35 36° W 04:18:12 10° NNW
USA 307 3.1 04:11:05 10° SSW 04:15:26 58° SE 04:16:51 38° ENE
USA 308 3.0 04:14:37 10° SW 04:18:58 63° SE 04:20:14 42° ENE
Cosmos 1758 3.2 04:15:44 10° S 04:19:44 63° E 04:21:23 32° NNE
Centaur D-1A AC-32 3.8 04:17:14 10° WNW 04:21:52 65° N 04:31:20 25° E
Cosmos 2279 Rocket 3.9 04:16:58 10° S 04:23:17 82° E 04:29:31 10° N
Cosmos 2180 Rocket 4.4 04:20:18 10° S 04:26:28 66° E 04:32:00 13° NNE
Cosmos 1943 3.2 04:20:59 10° NNW 04:26:42 84° WSW 04:32:28 10° SSE
Cosmos 1726 2.9 04:24:20 10° S 04:26:54 36° SE 04:26:54 36° SE
Cosmos 371 Rocket 4.2 04:24:00 10° S 04:27:52 30° ESE 04:27:52 30° ESE
deb Centaur AC-2 4.4 04:23:53 10° W 04:29:52 80° N 04:31:24 46° ENE
YAOGAN 1 2.5 04:26:48 10° SSE 04:31:12 89° W 04:35:32 10° NNW
Cosmos 2084 Rocket 3.4 04:35:36 10° NNW 04:40:11 84° ENE 04:41:43 42° SE
Cosmos 1624 Rocket 3.9 04:38:29 10° S 04:43:43 65° ESE 04:44:15 61° ENE
BREEZE-M DEB (TANK) 4.3 04:40:09 10° W 04:44:12 47° SSW 04:56:46 10° SE
SL-4 R/B 4.4 04:45:23 10° S 04:45:23 10° S 04:45:23 10° S
Cosmos 1092 Rocket 4.0 04:53:05 56° ENE 04:53:48 60° E 05:00:06 10° SSE
Cosmos 1544 Rocket 4.2 04:52:02 10° SSW 04:56:25 53° W 04:57:46 38° NW
Cosmos 2369 Rocket 2.0 04:52:00 10° SSW 04:57:40 83° ESE 04:58:07 75° NE
OAO 2 Rocket 3.5 04:55:05 10° W 04:59:59 61° S 05:00:05 61° S
NOSS 2-1 (E) 4.3 05:00:59 10° SSW 05:08:30 81° WNW 05:09:04 73° N
Cosmos 2263 4.3 05:05:39 10° SSW 05:10:39 67° S 05:10:39 67° S
Hubble Space Telescope 3.2 05:18:05 10° W 05:19:28 18° WNW 05:19:28 18° WNW
Atlas Centaur 2 3.3 05:35:42 10° W 05:40:02 41° W 05:40:02 41° W
Lacrosse 5 3.5 05:39:42 10° SW 05:42:28 31° WSW 05:42:28 31° WSW
Cosmos 1943 Rocket 4.3 05:40:56 10° SW 05:45:04 21° W 05:46:50 18° NW
USA 215 4.3 05:50:26 34° NW 05:50:26 34° NW 05:53:52 10° NW
H-2A R/B 4.0 05:48:56 10° SSW 05:52:52 24° WSW 05:53:50 22° W
ATLAS 5 CENTAUR R/B 4.1 05:51:21 10° SW 05:53:16 20° WSW 05:53:16 20° WSW
Cosmos 2237 Rocket 4.3 11:16:16 10° S 11:20:42 22° ESE 11:25:04 10° ENE
NOSS 3-1 (A) 4.5 11:27:29 63° ESE 11:27:29 63° ESE 11:34:25 10° SE
Cosmos 2227 Rocket 3.6 11:48:06 32° SSE 11:48:06 32° SSE 11:51:07 10° SSE
